Cloud_Cover
100 100 96 100 100 100 99 65 100 69 5 0 4 92 0 1 0 0 0 0 0 0 0 0 0 0 0 0 0 0 0 0 0 0 0 0 80 81 5 3 0 5 5 1
27 87 85 100 100 93 72 93 13 6 5 5 2 94 0 4 0 0 0 0 0 0 0 0 0 0 0 0 0 0 0 0 0 0 0 4 88 81 5 2 26 74 4 0
100 100 96 100 100 100 100 59 5 5 42 98 0 5 0 0 0 0 0 0 0 0 0 0 0 0 0 0 0 0 0 0 4 3 8 72 36 13 0 3 97 59 0 0
100 96 100 100 100 100 100 90 100 100 100 32 80 35 5 3 0 0 0 0 0 0 0 0 0 0 0 0 0 0 0 0 0 4 22 90 5 1 0 5 98 0 0 0
100 100 100 90 88 96 100 100 100 100 54 93 67 100 6 5 2 0 0 0 0 0 0 0 0 0 0 0 0 0 0 0 5 5 11 79 4 0 3 72 89 5 0 0
100 100 100 100 100 100 97 100 95 100 100 5 17 100 85 20 13 0 0 0 0 0 0 0 0 0 0 0 0 0 0 2 5 60 93 100 100 97 70 100 100 66 74 45
98 92 100 100 98 56 95 93 100 90 36 5 9 25 5 9 25 5 0 0 0 0 0 0 0 0 0 0 0 0 0 0 1 5 6 87 99 100 100 100 100 100 98 100
100 100 100 100 98 22 5 5 5 5 3 3 24 99 14 0 5 5 0 0 0 0 0 0 0 0 0 0 0 0 0 0 0 94 20 78 100 100 100 100 100 100 100 100
100 100 100 100 100 56 55 24 4 5 13 100 97 37 5 0 6 0 0 0 0 0 0 0 0 0 0 0 0 0 0 0 0 5 28 100 100 100 100 100 100 100 100 100
100 56 37 61 16 41 75 5 19 99 76 79 5 9 13 5 24 2 0 0 0 5 5 4 0 0 0 0 0 0 0 0 63 85 100 96 100 100 100 100 100 100 100 100
100 97 57 50 88 15 18 75 95 15 10 76 88 13 2 0 0 0 5 5 5 5 0 0 0 0 0 0 0 0 0 0 96 100 89 92 100 100 100 100 100 100 100 100
76 91 95 97 44 16 15 92 64 2 30 5 7 5 0 0 3 5 5 5 5 2 0 0 0 0 0 0 0 0 0 0 18 12 90 97 100 100 100 100 100 100 100 100
89 69 99 100 100 100 40 65 7 20 8 5 7 7 5 5 0 5 5 5 5 1 0 4 5 5 5 4 0 3 1 23 0 0 1 100 100 99 100 100 100 100 100 100
100 79 100 97 98 100 100 100 100 100 80 5 77 92 5 2 3 5 5 4 5 0 5 85 26 10 26 15 0 0 0 0 0 0 0 8 90 100 45 20 100 100 100 100
100 100 100 100 100 100 100 100 100 100 100 100 100 69 5 2 0 0 0 5 5 15 64 5 5 3 0 0 0 0 3 0 0 0 0 0 0 6 42 86 7 62 100 100
100 100 100 100 100 100 99 100 100 100 86 100 92 5 5 4 0 4 32 97 53 5 16 13 5 4 0 0 4 5 2 0 0 0 0 0 0 0 0 2 3 3 6 17
100 100 93 100 100 100 100 100 89 100 100 100 98 9 5 5 28 18 26 44 54 93 100 83 9 5 0 5 5 5 0 0 0 0 0 0 0 0 0 0 0 0 24 100
100 100 100 100 100 100 46 5 10 46 98 100 69 5 47 78 88 97 98 98 100 100 100 100 69 6 0 4 5 0 0 0 0 0 0 0 0 0 0 0 0 0 0 100
100 100 100 100 96 31 87 92 97 23 14 29 5 81 60 5 34 100 100 100 100 100 100 59 4 0 4 5 0 0 0 0 0 0 0 0 0 0 0 0 0 0 0 17
100 100 100 100 100 100 100 100 100 100 95 100 45 0 5 5 10 60 96 100 100 100 24 4 0 5 12 2 0 0 0 0 0 0 0 0 0 0 0 0 0 0 0 1
100 100 92 100 100 99 100 100 89 22 6 58 80 83 100 92 69 54 100 100 99 30 4 0 5 5 0 0 0 0 0 0 0 0 0 0 0 0 1 2 2 0 0 0
75 37 5 5 5 5 88 100 97 77 9 5 30 57 98 66 82 100 100 99 66 2 0 5 5 11 1 0 0 0 0 0 0 0 1 12 76 70 63 100 21 3 11 47
43 5 5 5 5 5 97 100 80 12 4 4 34 45 89 100 100 100 88 22 0 0 5 5 3 0 0 0 0 0 0 0 0 2 7 10 99 100 38 32 7 14 52 100
11 5 18 82 73 86 59 17 3 0 13 100 100 100 100 100 97 26 4 0 0 0 0 4 0 0 0 0 0 0 0 0 17 3 100 100 98 100 81 11 9 79 100 100
99 56 62 63 45 64 33 2 6 76 100 99 99 66 25 5 3 0 2 4 4 2 4 0 0 0 0 0 0 0 3 36 70 58 100 14 97 100 100 92 99 91 51 100
4 41 32 5 5 5 5 8 99 100 57 12 5 5 2 0 4 5 5 5 5 2 0 0 0 0 2 8 5 9 27 51 69 79 61 100 99 100 100 100 97 73 99 99